Flag for Germany Weather past 2 weeks in Rendsburg, Schleswig-Holstein, Germany

Now
52 °F

Drizzle. Fog.


Feels Like: 46 °F
Forecast: 42 / 51 °F
Wind: 17 mph from Southwest

Location: Hohn

Current Time: Dec 18, 2014 at 6:27:21 PM

Latest Report: Dec 18, 2014 at 5:20 PM


Visibility: 1 mi

Pressure: 29.53 "Hg

Humidity: 94%

Dew point: 50 °F

Location of RendsburgLocation

Historic Weather in Rendsburg — Graph

°F

Rendsburg temperature yesterday

Maximum temperature yesterday: 45 °F (at 11:20 PM)
Minimum temperature yesterday: 37 °F (at 12:20 AM)
Average temperature yesterday: 39 °F

Past Weeks' High & Low Weather Summary

 TemperatureHumidityPressure
High52 °F (Dec 18, 4:20 PM)100% (Dec 4, 8:20 PM)30.27 "Hg (Dec 4, 8:20 PM)
Low30 °F (Dec 3, 4:20 PM)70% (Dec 12, 11:20 PM)29.06 "Hg (Dec 12, 1:20 PM)
Average38 °F91%29.81 "Hg
* Reported Dec 3 4:20 PM — Dec 18 4:20 PM, Rendsburg, Weather by CustomWeather, © 2014

Note: Actual official high and low records may vary slightly from our data, if they occured in-between our weather recording intervals... More about our weather records

Advertising

Rendsburg weather history for previous 24 hours

 ConditionsComfort  
Time TempWeatherWind HumidityBarometerVisibility
4:20 PM
Dec 18
52 °FDrizzle. Fog.17 mph94%29.53 "Hg1 mi
3:20 PM50 °FDrizzle. Fog.15 mph100%29.56 "Hg1 mi
2:20 PM50 °FFog.14 mph100%29.56 "Hg2 mi
1:20 PM50 °FFog.16 mph94%29.59 "Hg2 mi
12:20 PM50 °FDrizzle. Fog.15 mph94%29.59 "Hg1 mi
11:20 AM50 °FDrizzle. Fog.13 mph94%29.62 "Hg1 mi
10:20 AM50 °FDrizzle. Fog.15 mph94%29.65 "Hg1 mi
9:20 AM48 °FDrizzle. Fog.10 mph100%29.65 "Hg1 mi
8:20 AM48 °FDrizzle. Fog.8 mph94%29.65 "Hg1 mi
7:20 AM48 °FFog.7 mph94%29.65 "Hg1 mi
6:20 AM46 °FFog.9 mph100%29.65 "Hg2 mi
5:20 AM46 °FPassing clouds.9 mph93%29.65 "Hg4 mi
4:20 AM46 °FPassing clouds.10 mph87%29.65 "Hg5 mi
3:20 AM46 °FFog.10 mph93%29.65 "Hg3 mi
2:20 AM45 °FFog.10 mph100%29.65 "Hg3 mi
1:20 AM45 °FPassing clouds.9 mph100%29.62 "Hg5 mi
12:20 AM45 °FPassing clouds.9 mph93%29.62 "Hg6 mi
11:20 PM
Dec 17
45 °FPassing clouds.10 mph93%29.59 "Hg5 mi
10:20 PM43 °FPassing clouds.9 mph100%29.56 "Hg5 mi
9:20 PM41 °FFog.5 mph100%29.56 "Hg2 mi
8:20 PM39 °FDrizzle. Fog.5 mph100%29.53 "Hg1 mi
7:20 PM39 °FDrizzle. Fog.3 mph93%29.50 "Hg2 mi
6:20 PM37 °FDrizzle. Fog.5 mph100%29.50 "Hg3 mi
Weather by CustomWeather, © 2014

See weather overviewHow to use our weather pages